Location: Arrien
(43.3167°N, 0.1500°W)
Time: 17:41:24
(UTC+00:00)

Cosmos 2082 - Pass Details

Date: 23 May 2022
Orbit: 835 x 853 km, 71.0° (Epoch: 01 July)

Event Time Altitude Azimuth Distance (km) Brightness Sun altitude
Rises 20:34:27 0° 340° (NNW) 3,403 8.1 -10.8°
Reaches altitude 10° 20:37:05 10° 349° (NNW) 2,462 7.0 -11.2°
Maximum altitude 20:42:20 39° 57° (ENE) 1,246 4.5 -11.9°
Enters shadow 20:46:23 16° 119° (ESE) 2,054 5.1 -12.4°
